PROBA-1 1 26958U 01049B 26206.56652796 .00002712 00000+0 17659-3 0 9998 2 26958 97.9614 216.4433 0054646 354.7266 5.3379 15.07655285349400 CUTE-1 (CO-55) 1 27844U 03031E 26205.97080695 .00000297 00000+0 14722-3 0 9997 2 27844 98.6748 214.0560 0010827 77.5978 282.6412 14.24356508197053 CUBESAT XI-IV (CO-57) 1 27848U 03031J 26206.47024305 .00000253 00000+0 12991-3 0 9991 2 27848 98.6781 214.2311 0010744 92.8705 267.3703 14.23639084196825 APRIZESAT 4 1 35684U 09041D 26206.49033266 .00000783 00000+0 99700-4 0 9995 2 35684 98.1396 282.5719 0042921 195.5923 164.3971 14.83926457917041 APRIZESAT 3 1 35686U 09041F 26206.35008928 .00000859 00000+0 79206-4 0 9992 2 35686 98.2105 1.4151 0060581 301.7175 57.8148 14.96324733922087 PROBA-2 1 36037U 09059B 26206.47953042 .00000205 00000+0 58197-4 0 9992 2 36037 98.2463 29.3045 0013733 157.3809 202.7996 14.54877307887099 APRIZESAT 5 1 37792U 11044E 26206.58255217 .00000811 00000+0 10961-3 0 9998 2 37792 98.2447 140.7136 0050843 238.3502 121.2745 14.81141232804471 APRIZESAT 6 1 37793U 11044F 26206.57148211 .00000766 00000+0 11519-3 0 9992 2 37793 98.2327 117.8501 0042286 324.7713 157.4632 14.76969576802811 PROBA-V 1 39159U 13021A 26206.35393187 .00000071 00000+0 49192-4 0 9995 2 39159 98.3614 183.0818 0004820 35.5854 324.5646 14.23604998686548 APRIZESAT 7 1 39416U 13066A 26206.32454825 .00001194 00000+0 12300-3 0 9991 2 39416 97.7728 159.0020 0037398 85.0968 275.4519 14.91639266686918 APRIZESAT 8 1 39425U 13066K 26206.34522552 .00000896 00000+0 10261-3 0 9998 2 39425 97.8233 153.2855 0046351 158.5743 201.7427 14.87709836685340 BUGSAT-1 (TITA) 1 40014U 14033E 26206.58822304 .00005507 00000+0 28795-3 0 9998 2 40014 98.0433 301.3938 0028721 51.9633 308.4183 15.15972663661658 SAUDISAT 4 1 40016U 14033G 26206.39653219 .00000574 00000+0 82368-4 0 9992 2 40016 97.7630 351.2212 0043573 310.2413 49.4991 14.79584602651720 APRIZESAT 9 1 40018U 14033J 26206.35221731 .00000633 00000+0 99978-4 0 9991 2 40018 97.9105 338.6278 0067437 77.9549 282.9206 14.74263348649180 APRIZESAT 10 1 40019U 14033K 26206.28978558 .00000705 00000+0 11772-3 0 9995 2 40019 97.9690 332.4084 0079468 151.2740 209.2878 14.70922058647858 TECHDEMOSAT-1 (TDS-1) 1 40076U 14037H 26206.43644343 .00006991 00000+0 39123-3 0 9994 2 40076 98.3832 202.4599 0007729 129.3337 230.8578 15.13800061654010 TECHNOSAT 1 42829U 17042E 26206.01229365 .00002592 00000+0 18562-3 0 9995 2 42829 97.4320 2.2450 0016521 329.7110 30.3160 15.05151414492390 FLYING LAPTOP 1 42831U 17042G 26206.57731368 .00001625 00000+0 13015-3 0 9994 2 42831 97.4851 0.6788 0018987 359.3888 0.7311 15.01363692492216 HAWK-A 1 43765U 18099H 26206.60568781 .00007138 00000+0 28309-3 0 9992 2 43765 97.3895 258.3452 0035663 147.8470 212.4953 15.25083074418959 HAWK-B 1 43794U 18099AN 26206.60782800 .00006467 00000+0 27227-3 0 9996 2 43794 97.3946 257.6816 0032404 165.6051 194.6117 15.23220058418885 HAWK-C 1 43799U 18099AT 26206.55970534 .00009388 00000+0 33127-3 0 9999 2 43799 97.3873 259.4039 0041184 147.6940 212.6835 15.28635889419772 SALSAT 1 46495U 20068K 26206.46920955 .00007256 00000+0 25013-3 0 9993 2 46495 97.8864 211.8813 0010316 158.0440 202.1243 15.30293295321211 HAWK-2C 1 47502U 21006CT 26206.55142421 .00006491 00000+0 19269-3 0 9996 2 47502 97.2266 250.1017 0008477 71.5285 288.6879 15.35095951305382 HAWK-2A 1 47505U 21006CW 26206.55347914 .00006509 00000+0 19307-3 0 9996 2 47505 97.2306 250.8044 0008059 75.5393 284.6745 15.35126556305381 HAWK-2B 1 47508U 21006CZ 26206.54613781 .00007267 00000+0 21434-3 0 9992 2 47508 97.2179 249.0689 0008598 73.4822 286.7366 15.35258370305381 HAWK-3B 1 48931U 21059BE 26206.53826322 .00048537 00000+0 36070-3 0 9994 2 48931 97.6632 46.9639 0005251 164.5774 195.5650 15.72695311283873 HAWK-3C 1 48948U 21059BX 26206.09255643 .00053657 00000+0 39915-3 0 9995 2 48948 97.6751 52.2238 0005571 164.9819 195.1610 15.72648124283802 HAWK-3A 1 48957U 21059CG 26206.53782856 .00045667 00000+0 33970-3 0 9992 2 48957 97.6686 49.8891 0005393 165.3436 194.7984 15.72683121283870 HAWK-5C 1 52754U 22057Y 26206.40602033 .00018018 00000+0 29423-3 0 9993 2 52754 97.6625 8.5827 0002413 293.7189 66.3809 15.52630813232271 HAWK-5B 1 52756U 22057AA 26205.82580930 .00019778 00000+0 32295-3 0 9996 2 52756 97.6634 6.3188 0003079 283.9432 76.1478 15.52611227232189 HAWK-5A 1 52757U 22057AB 26206.40564440 .00018215 00000+0 29740-3 0 9996 2 52757 97.6635 7.7674 0002968 286.6591 73.4335 15.52631711232270 HAWK-6B 1 55324U 23011A 26206.14782035 .00004971 00000+0 21359-3 0 9995 2 55324 40.4984 130.6058 0004497 289.7281 70.3044 15.23227122193631 HAWK-6C 1 55326U 23011C 26206.47500651 .00004492 00000+0 19379-3 0 9992 2 55326 40.4975 125.5319 0004968 287.4329 72.5937 15.23228460193694 HAWK-6A 1 55327U 23011D 26206.14722461 .00004978 00000+0 21387-3 0 9993 2 55327 40.4986 129.0726 0004774 282.1680 77.8594 15.23227189193644 HAWK-7A 1 56191U 23054P 26206.62828315 .00005613 00000+0 20991-3 0 9995 2 56191 97.2652 92.9877 0001014 239.7688 120.3451 15.27723388182896 HAWK-7B 1 56193U 23054R 26206.62820945 .00005581 00000+0 20869-3 0 9996 2 56193 97.2681 91.2649 0000132 333.7084 26.4149 15.27725394182893 HAWK-7C 1 56200U 23054Y 26206.62808558 .00005598 00000+0 20934-3 0 9992 2 56200 97.2656 92.0218 0000506 207.8409 152.2804 15.27724012182894